User: anonymous   Login
Location: Unspecified
(0.0000°N, 0.0000°E)
Time: 12:17:51
(UTC+00:00)
Language:

LAPAN A2 - Orbit

View from above orbital plane
View from above orbital plane
View from above satellite
View from above satellite

Ground track
Ground track

The orbit data is extracted from the following two-line orbital elements,

1 40931U 15052B   21016.10483500  .00000666  00000-0  36575-5 0  9990
2 40931   5.9989 258.8952 0013273  45.0299 315.0966 14.76658400286741
Epoch (UTC): 16 January 2021 02:30:57
Eccentricity: 0.0013273
inclination: 5.9989°
perigee height: 630 km
apogee height: 649 km
right ascension of ascending node: 258.8952°
argument of perigee: 45.0299°
revolutions per day: 14.76658400
mean anomaly at epoch: 315.0966°
orbit number at epoch: 28674

The dashed part of the orbit path shows where the satellite is in the earth's shadow,  

DLR